Regional Weather Roundup
Issued by NWS

Home | Current Version | Previous Version | Graphics & Text | Print | Product List | Glossary On
Versions: 1 2 3 4 5 6 7 8 9 10 11 12 13 14 15 16 17 18 19 20 21 22 23 24 25 26 27 28 29 30 31 32 33 34 35 36 37 38 39 40 41 42 43 44 45 46 47 48 49 50
000
ASUS43 KMKX 251021
RWRWI

WISCONSIN REGIONAL WEATHER ROUNDUP
NATIONAL WEATHER SERVICE MILWAUKEE/SULLIVAN WI
500 AM CDT TUE JUL 25 2017

NOTE: "FAIR" INDICATES FEW OR NO CLOUDS BELOW 12,000 FEET WITH NO
SIGNIFICANT WEATHER AND/OR OBSTRUCTIONS TO VISIBILITY.

WIZ001-002-006>008-014>016-023>028-251100-
NORTHWEST WISCONSIN

CITY           SKY/WX    TMP DP  RH WIND       PRES   REMARKS
SUPERIOR ARPT  NOT AVBL
ASHLAND        CLEAR     50  49  96 S5        30.09S
HAYWARD        CLOUDY    56  53  90 E3        30.10R
SIREN          LGT RAIN  64  60  85 CALM      30.07R
CUMBERLAND     PTCLDY    61  59  94 S3        30.10R
RICE LAKE      PTCLDY    62  59  91 CALM      30.12R
CHETEK         LGT RAIN  61  60  97 CALM      30.11R
LADYSMITH      CLOUDY    61  58  89 SE7       30.11F
EAU CLAIRE     MOCLDY    64  58  80 S7        30.09R
MENOMONIE      CLOUDY    62  60  93 CALM      30.09S
NEW RICHMOND   CLOUDY    64  59  85 S5        30.09R
OSCEOLA        CLOUDY    64  64 100 E7        30.10R
$$

WIZ003>005-009-010-017-018-251100-
NORTH CENTRAL WISCONSIN

CITY           SKY/WX    TMP DP  RH WIND       PRES   REMARKS
MANITOWISH WTR MOCLDY    57  57 100 S5        30.14R
ARBOR VITAE    MOCLDY    58  54  86 CALM      30.15R
WOODRUFF       MOCLDY    58  54  86 CALM      30.15R
RHINELANDER    MOCLDY    54  52  93 CALM      30.16S
EAGLE RIVER    PTCLDY    53  51  93 CALM      30.15S
LAND O LAKES   CLEAR     49  49 100 CALM      30.18R
PHILLIPS       CLOUDY    58  55  89 S8        30.13S
TOMAHAWK         N/A     52  50  94 CALM      30.16R
MEDFORD        CLOUDY    54  52  93 SE6       30.14F
MERRILL        PTCLDY    51  51 100 CALM      30.17R
$$

WIZ029-030-035-036-043>047-251100-
CENTRAL WISCONSIN

CITY           SKY/WX    TMP DP  RH WIND       PRES   REMARKS
WAUSAU         CLOUDY    56  52  86 SE6       30.14S
MOSINEE        PTCLDY    52  52 100 CALM      30.16S
MARSHFIELD     PTCLDY    55  52  89 S5        30.14S
STEVENS POINT  MOCLDY    50  50  99 CALM      30.17R
WAUPACA        PTCLDY    54  53  98 CALM      30.16S
WAUTOMA        CLEAR     50  49  96 CALM      30.17R
WISC RAPIDS    PTCLDY    54  52  93 CALM      30.17R
CAMP DOUGLAS   CLEAR     55  55  99 S7        30.15R
$$

WIZ011>013-019>022-031-037>040-048>050-251100-
NORTHEAST WISCONSIN

CITY           SKY/WX    TMP DP  RH WIND       PRES   REMARKS
ANTIGO         PTCLDY    52  51  95 CALM      30.17S
SHAWANO        PTCLDY    54  52  93 CALM      30.16R
OCONTO         PTCLDY    50  50  98 CALM      30.15S
STURGEON BAY     N/A     54  50  86 CALM      30.17S
GREEN BAY      CLOUDY    52  52 100 CALM      30.16S
MANITOWOC      PTCLDY    52  50  93 CALM      30.17R
APPLETON       PTCLDY    57  43  58 CALM      30.14F
CLINTONVILLE   CLEAR    N/A N/A N/A CALM      30.16R
OSHKOSH        PTCLDY    52  49  89 CALM      30.15S
$$

WIZ032>034-041-042-053>061-251100-
SOUTHWEST WISCONSIN

CITY           SKY/WX    TMP DP  RH WIND       PRES   REMARKS
LA CROSSE      PTCLDY    64  59  83 SE7       30.10F
SPARTA         PTCLDY    53  53  99 E5        30.14S
VIROQUA        PTCLDY    58  58 100 CALM      30.14S
BOSCOBEL       CLEAR     57  56  96 CALM      30.14S FOG
PRAIRIE DU CHI CLEAR     60  58  91 E7        30.12F
PLATTEVILLE    CLEAR     58  58 100 E3        30.16S
$$

WIZ056-057-062-063-064-067-068-251100-
SOUTH CENTRAL WISCONSIN

CITY           SKY/WX    TMP DP  RH WIND       PRES   REMARKS
REEDSBURG      PTCLDY    55  55 100 CALM      30.16R
BARABOO/DELLS  PTCLDY    54  51  90 CALM      30.15R
LONE ROCK      CLEAR     59  56  89 CALM      30.15R
MINERAL POINT  CLEAR     59  59 100 SE3       30.16R
MADISON        CLEAR     53  52  96 CALM      30.15S
MIDDLETON      CLEAR     52  52 100 CALM      30.17R
WATERTOWN      CLEAR     52  52 100 SE3       30.16S
MONROE         CLEAR     57  55  94 SE7       30.16S
JANESVILLE       N/A     55  55 100 CALM      30.16R FOG
$$

WIZ051-052-058>065-066-070>072-251100-
SOUTHEAST WISCONSIN

CITY           SKY/WX    TMP DP  RH WIND       PRES   REMARKS
MILWAUKEE      PTCLDY    60  56  86 NW5       30.17R
WAUKESHA       CLEAR     52  52 100 CALM      30.18S
MILWAUKEE/TIMM CLEAR     54  50  87 CALM      30.18R
RACINE         CLEAR     57  56  96 CALM      30.19R
KENOSHA        CLEAR     55  54  96 CALM      30.17R
FOND DU LAC    CLEAR     51  48  89 CALM      30.15F
SHEBOYGAN      PTCLDY    50  50 100 W3        30.17R
WEST BEND      CLEAR     50  50 100 CALM      30.17S FOG
JUNEAU         CLEAR     51  50  96 CALM      30.17F
$$

LSZ147-162-251100-
LAKE SUPERIOR

STATION/POSITION TIME  TEMP    WIND        PRES    WAVE
                       AIR SEA DIR/SP/G            HT/PER
                 (UTC) (F)     (DEG/KT/KT) (MB)    (FT/S)
W MID LAKE BUOY  0950   54 49  220/  6/  6 1018.7R   0
DEVILS ISLAND    1000   63     160/  8/  9 1018.2S
SAXON HARBOR     0940   58     200/  2/  5 1018.3R
$$

LMZ867-665-643>646-251100-
LAKE MICHIGAN

STATION/POSITION TIME  TEMP    WIND        PRES    WAVE
                       AIR SEA DIR/SP/G            HT/PER
                 (UTC) (F)     (DEG/KT/KT) (MB)    (FT/S)
CHAMBERS ISLAND  0940   55     160/  1/  2 1020.7R
S GREEN BAY BUOY 1000   67 72  140/  6/  8 1020.9
N MID LAKE BUOY  0950   65 66  150/  2/  2 1022.1R   0
NORTHPORT PIER   0940   58     200/  1/  2 1021.3R
KEWAUNEE LAKESHO 0954   54     310/  3/  5 1020.6R
SHEBOYGAN LAKESH 1000   60     280/  4/  4 1021.3R
PORT WASHINGTON  0940   58     260/  3/  5 1022.4R
ATWATER BUOY     0909   63 68  300/  2/  4 1021.3R
MILWAUKEE LAKESH 0950   63     300/  3/  3   N/A
S MID LAKE BUOY  0950   69 71   80/  2/  4 1021.4R   2/ 5
KENOSHA   LAKESH 1000   63        CALM     1021.3
$$

TC  - TEMPERATURE IN CELSIUS
VSB - VISIBILITY IN STATUTE MILES
WCI - WIND CHILL INDEX
HX  - HEAT INDEX




USA.gov is the U.S. government's official web portal to all federal, state and local government web resources and services.